Retour au catalogue

SL-8 R/B

ActifPO
NORAD 10020·ROCKET BODY·🇷🇺 Russia

Lancé May 25, 1977 depuis Plesetsk Cosmodrome

Loading…

Prochains Passages (prochaines 24 heures)

TLE

FraisSource: Space-Track

Époque: Sep 14, 2026, 14:26 UTC

1 10020U 77039B   26257.60177400  .00000091  00000-0  74872-4 0  9998
2 10020  82.9493   9.8838 0030670 198.1233 161.8835 13.78412475478664

Suivez SL-8 R/B en temps réel avec AllMySat

Download on the App Store